This demonstration page uses our WeatherBlox Daily Observations layout. Learn more.

Left ArrowRight Arrow

41.12389, -100.76542

Hourly Observations for December 4, 2021

Temp ( °F °C ) Dew Point ( °F °C ) Humidity (%) Winds ( mph kmh ) Pressure ( in mb ) Visibility ( mi km ) Precip ( " mm )
12:53 am 00:53 Clear 27 -2.8 22 -5.6 81 81 E 5 7 30.24 1024 10 16 0.00 0.00
1:53 am 01:53 Clear 28 -2.2 23 -5 81 81 ESE 6 9 30.24 1024 10 16 0.00 0.00
2:53 am 02:53 Clear 28 -2.2 23 -5 81 81 Calm 30.25 1024 10 16 0.00 0.00
3:53 am 03:53 Clear 27 -2.8 23 -5 85 85 S 3 6 30.25 1025 10 16 0.00 0.00
4:53 am 04:53 Clear 23 -5 20 -6.7 88 88 ENE 5 7 30.27 1025 10 16 0.00 0.00
5:53 am 05:53 Clear 25 -3.9 21 -6.1 85 85 SSE 3 6 30.29 1026 10 16 0.00 0.00
6:53 am 06:53 Clear 22 -5.6 20 -6.7 92 92 SSE 3 6 30.29 1026 10 16 0.00 0.00
7:53 am 07:53 Sunny 22 -5.6 19 -7.2 89 89 ENE 3 6 30.30 1026 10 16 0.00 0.00
8:02 am 08:02 Partly Cloudy 23 -5 20 -6.7 88 88 ENE 7 11 30.40 1030 10 16 0.00 0.00
8:11 am 08:11 Mostly Cloudy 26 -3.3 23 -5 88 88 NE 7 11 30.39 1029 10 16 0.00 0.00
8:51 am 08:51 Cloudy 30 -1 28 -2 93 93 ESE 13 20 30.35 1028 10 16 0.00 0.00
8:53 am 08:53 Cloudy 31 -0.6 28 -2.2 89 89 ESE 13 20 30.29 1026 9 14 0.00 0.00
9:22 am 09:22 Cloudy with Mist and Fog 31 -0.6 29 -1.7 92 92 ESE 13 20 30.34 1027 3 4 0.00 0.00
9:29 am 09:29 Cloudy with Mist and Fog 32 0 30 -1.1 92 92 ESE 13 20 30.33 1027 3 5 0.00 0.00
9:39 am 09:39 Cloudy with Mist and Fog 32 0 30 -1.1 92 92 SE 13 20 30.33 1027 2 3 0.00 0.00
9:53 am 09:53 Cloudy with Mist and Fog 32 0 30 -1.1 92 92 SE 10 17 30.29 1026 2 2 0.00 0.00
10:08 am 10:08 Cloudy with Mist and Fog 33 0.6 31 -0.6 92 92 SE 10 17 30.33 1027 3 4 0.00 0.00
10:16 am 10:16 Cloudy with Mist and Fog 33 0.6 31 -0.6 92 92 ESE 12 19 30.33 1027 4 6 0.00 0.00
10:53 am 10:53 Cloudy 35 1.7 32 0 89 89 SE 8 13 30.29 1026 7 11 0.00 0.00
11:09 am 11:09 Cloudy 36 2.2 33 0.6 89 89 ESE 8 13 30.30 1026 9 14 0.00 0.00
11:34 am 11:34 Partly Cloudy 41 5 33 0.6 73 73 SSE 14 22 30.23 1024 10 16 0.00 0.00
11:53 am 11:53 Mostly Sunny 42 5.6 33 0.6 71 71 SSE 16 26 30.21 1023 10 16 0.00 0.00
12:53 pm 12:53 Sunny 43 6.1 32 0 65 65 S 15 24 30.18 1022 10 16 0.00 0.00
1:53 pm 13:53 Sunny 46 7.8 32 0 58 58 SSE 17 28 30.11 1020 10 16 0.00 0.00
2:53 pm 14:53 Sunny 46 7.8 32 0 58 58 SSE 12 19 30.09 1019 10 16 0.00 0.00
3:53 pm 15:53 Sunny 47 8.3 32 0 56 56 SE 12 19 30.07 1018 10 16 0.00 0.00
4:53 pm 16:53 Sunny 44 6.7 32 0 63 63 SE 8 13 30.06 1018 10 16 0.00 0.00
5:53 pm 17:53 Clear 43 6.1 32 0 65 65 SE 10 17 30.01 1016 10 16 0.00 0.00
6:53 pm 18:53 Clear 42 5.6 31 -0.6 65 65 SE 12 19 29.98 1015 10 16 0.00 0.00
7:53 pm 19:53 Clear 41 5 31 -0.6 67 67 SE 7 11 29.97 1015 10 16 0.00 0.00
8:53 pm 20:53 Clear 40 4.4 31 -0.6 70 70 SSE 12 19 29.93 1014 10 16 0.00 0.00
9:53 pm 21:53 Clear 41 5 31 -0.6 67 67 SSE 16 26 29.89 1012 10 16 0.00 0.00
10:53 pm 22:53 Clear 42 5.6 32 0 68 68 S 14 22 29.85 1011 10 16 0.00 0.00
11:53 pm 23:53 Clear 40 4.4 31 -0.6 70 70 SSE 10 17 29.82 1010 10 16 0.00 0.00

Powered by AerisWeather